Theta_e
307 308 310 310 310 298 305 305 299 302 309 306 302 304 305 305 302 300 307 305 307 312 312 314 315 314 316 317 318 318 319 322 327 327 329 333 336 338 342 344 346 348 350 351 351 353 353 353 354 354 356 357 358 358 359 360 362 362 362 363 361 362 362
307 311 311 311 311 310 308 301 304 309 311 309 304 297 300 299 296 299 303 301 303 303 300 312 312 311 312 314 316 317 319 320 321 324 328 332 334 337 341 345 348 349 349 350 351 351 352 353 354 355 357 358 359 359 359 360 361 361 361 362 361 361 362
306 309 309 307 311 313 307 306 313 303 298 297 303 301 294 295 294 296 300 302 302 304 305 309 309 309 310 313 315 316 316 318 319 321 326 331 334 335 339 343 346 347 348 348 351 350 352 353 355 356 356 356 357 359 359 359 359 360 360 360 361 361 362
305 306 305 298 303 309 311 312 308 311 307 303 300 302 303 303 296 297 298 300 299 307 308 310 311 312 313 313 314 314 316 318 319 321 322 326 331 333 336 341 344 346 347 348 349 349 350 351 353 354 355 355 355 357 358 359 359 361 361 360 361 360 360
303 298 302 300 303 301 303 304 303 306 306 310 307 306 303 300 298 298 299 297 302 309 312 311 312 314 315 315 315 316 317 318 319 321 322 326 330 331 332 337 342 345 347 347 348 350 350 351 354 354 354 354 354 355 356 357 358 358 358 358 359 360 361
297 299 305 305 305 306 305 303 302 305 303 301 298 297 307 303 300 296 298 297 307 311 315 313 313 315 315 316 316 317 318 319 321 321 324 328 329 332 333 332 338 342 347 348 349 350 350 350 351 352 352 353 353 354 355 356 356 356 356 357 359 360 361
297 301 305 308 308 306 304 305 304 307 306 306 301 294 300 304 304 305 304 300 304 315 316 316 315 315 315 316 316 316 317 320 320 322 324 327 330 332 333 334 334 339 347 349 348 349 350 349 350 351 352 351 352 354 354 355 354 355 356 356 358 361 361
301 303 305 306 307 306 303 304 307 306 304 305 303 303 305 302 304 301 301 298 303 314 318 317 316 318 317 320 319 319 318 318 320 322 324 327 331 338 336 335 335 341 347 350 350 349 349 349 351 351 351 352 353 353 353 354 353 354 355 356 357 360 360
295 297 301 301 305 305 303 303 306 307 308 308 307 306 306 301 303 304 301 296 302 312 317 318 316 316 316 317 318 319 319 321 322 323 324 327 335 339 336 336 339 343 345 348 349 349 351 350 349 351 351 351 352 353 353 353 353 354 355 357 357 358 360
285 286 288 290 295 298 302 304 305 308 305 305 303 300 303 297 304 306 302 302 309 316 318 317 317 316 317 318 318 319 320 321 321 325 332 335 336 342 343 342 342 342 345 349 351 352 352 350 349 351 352 352 352 352 353 354 353 354 355 356 357 358 359
291 294 295 298 300 299 297 302 303 303 305 307 306 305 302 299 304 303 306 307 308 311 313 315 315 315 314 317 323 323 324 326 325 329 329 326 333 339 342 344 343 347 350 351 351 353 350 349 349 350 351 351 351 353 353 353 354 355 356 356 358 357 359
295 297 298 299 299 296 297 297 299 302 302 304 304 301 300 307 303 298 307 310 306 309 313 315 318 324 332 332 334 335 336 337 337 337 337 337 326 334 338 340 342 345 348 351 352 352 351 349 350 350 351 351 351 353 353 353 354 355 355 357 357 358 359
295 296 297 298 298 297 298 298 298 298 301 302 301 303 305 307 303 300 308 310 308 310 312 322 327 330 332 332 335 338 339 338 341 342 341 338 332 329 332 340 344 345 345 351 353 353 351 350 350 350 350 351 353 354 355 355 354 355 357 357 357 357 359
293 295 296 297 297 297 298 298 299 300 300 300 302 303 305 306 307 309 309 310 310 313 319 324 329 333 333 335 338 339 340 338 341 341 341 339 340 339 334 336 340 346 347 352 355 355 354 351 351 350 351 352 351 352 352 353 354 355 356 357 357 357 358
292 294 296 297 297 297 296 298 299 299 300 301 303 304 306 307 306 307 307 307 309 317 324 326 329 333 335 334 335 336 338 339 338 339 340 341 343 345 347 351 338 344 347 349 355 356 355 352 351 350 351 352 352 352 352 353 354 355 356 357 357 357 358
288 293 294 295 297 297 296 296 297 298 299 298 301 302 308 306 305 307 307 306 306 313 321 324 326 329 331 331 333 335 335 336 337 338 339 340 343 344 346 349 352 349 341 346 350 353 352 351 351 351 352 352 351 351 353 353 353 354 356 357 357 359 359
287 292 295 295 296 295 293 294 297 300 301 302 308 309 310 310 312 309 303 306 317 315 319 319 324 326 328 332 333 333 334 335 335 334 335 338 340 343 347 348 350 350 347 341 348 351 351 350 349 351 353 352 352 352 354 355 356 354 355 356 358 360 360
286 291 294 295 292 285 288 302 304 303 300 306 305 305 308 310 311 310 311 312 313 314 314 316 318 322 327 333 336 335 331 329 329 329 331 333 337 341 344 347 349 351 351 345 341 350 352 352 349 352 354 352 353 354 355 356 355 356 356 357 360 360 361
285 290 292 289 284 286 301 307 308 306 304 311 307 307 309 308 310 310 311 311 310 310 312 315 319 322 325 331 335 329 325 325 324 325 327 330 333 336 341 346 348 351 353 349 341 344 350 350 352 352 353 353 355 353 355 354 355 358 358 359 360 361 361
289 287 287 280 286 299 306 307 306 311 312 310 308 305 305 307 307 308 308 308 309 310 311 315 320 323 325 332 333 327 324 323 322 323 324 327 329 333 340 345 348 351 351 348 340 339 350 351 350 351 352 353 353 352 354 354 354 356 359 359 359 361 361
283 286 286 287 296 295 301 300 303 303 303 304 303 299 300 306 307 307 307 306 305 306 310 315 319 323 326 329 333 323 321 319 321 321 321 322 326 334 343 347 348 353 353 349 344 342 346 349 348 350 352 353 352 352 352 353 356 355 357 359 360 362 361
290 285 284 286 288 284 294 297 302 303 305 306 306 306 300 305 306 308 307 305 303 304 308 313 317 323 326 323 327 319 317 318 318 319 321 323 327 338 346 349 351 354 351 347 345 344 349 349 349 351 353 352 352 353 352 353 354 354 356 357 359 361 360
288 286 282 282 283 288 295 297 299 301 303 306 307 303 299 302 305 306 306 304 302 303 306 310 315 322 320 320 316 314 313 314 315 316 319 321 327 340 346 348 349 352 354 350 345 347 350 348 349 353 353 352 352 352 353 353 354 354 355 357 359 360 361
287 286 283 282 289 288 296 299 300 300 303 304 303 294 295 300 304 305 305 302 301 302 305 308 310 309 308 306 308 310 310 311 313 315 316 318 326 341 346 348 351 353 356 352 346 348 349 350 352 355 353 352 354 353 353 354 353 355 356 358 360 362 362
287 286 285 288 291 299 300 299 301 302 303 304 294 290 295 302 304 305 304 302 301 302 303 304 303 306 308 309 310 311 311 311 312 315 317 318 328 339 344 347 351 354 355 351 348 347 350 353 351 353 353 352 353 355 355 354 354 355 358 360 362 363 363
285 286 284 285 291 297 299 301 303 303 298 293 292 296 302 304 304 305 305 303 302 302 303 303 304 305 308 309 310 310 311 311 311 313 315 318 328 337 344 349 351 352 352 352 350 347 353 353 355 354 354 354 355 356 354 353 356 357 359 361 362 363 363
289 288 285 284 281 294 300 300 300 301 292 292 296 301 302 304 304 304 304 303 302 302 302 304 304 305 306 307 308 309 311 310 309 312 314 316 321 330 338 346 350 350 355 351 348 349 351 352 351 352 354 355 356 357 354 358 358 360 360 361 363 363 363
284 284 282 283 289 294 301 298 290 296 298 300 301 300 301 304 305 303 303 303 303 303 302 303 304 305 306 307 307 309 310 309 310 313 314 316 320 325 334 344 349 352 353 357 358 352 353 354 354 356 356 357 359 357 358 362 361 360 362 363 365 364 363
287 284 288 293 298 299 301 301 300 301 302 303 303 302 302 303 303 305 302 302 303 304 303 303 304 304 305 305 306 308 308 309 309 312 313 315 319 321 327 337 345 352 351 354 356 356 354 356 357 359 359 360 361 360 363 365 363 362 363 364 364 364 363
295 297 297 298 298 299 300 302 302 300 301 302 302 301 301 303 304 305 303 302 303 304 305 303 304 304 305 305 306 308 310 309 310 313 313 315 318 319 324 332 341 348 352 352 354 356 359 358 357 360 360 362 363 363 365 365 364 365 365 366 366 366 366
290 286 296 296 296 298 301 300 301 302 302 302 303 302 301 303 305 306 306 305 305 306 306 305 304 305 306 306 306 308 309 309 310 311 313 315 315 316 320 328 339 343 352 352 352 354 357 360 361 361 361 363 366 366 369 366 365 369 369 368 365 366 366
289 289 295 296 299 300 301 301 298 298 300 301 303 302 303 304 306 307 307 307 306 307 305 307 306 305 307 306 305 305 307 309 309 310 314 315 313 315 320 327 336 340 344 350 352 353 354 359 362 364 366 368 369 371 369 369 369 370 368 367 366 366 366
293 295 296 296 297 299 299 299 300 301 301 301 301 302 302 304 305 307 308 308 308 307 306 307 307 306 307 307 306 306 307 309 309 309 312 313 313 315 318 324 332 337 342 344 349 351 353 357 359 361 364 366 369 370 369 369 370 369 367 365 366 365 365
287 287 290 294 288 288 294 297 298 299 301 300 300 301 302 303 304 306 306 307 308 308 308 308 308 307 307 308 308 306 308 308 309 309 311 313 312 313 317 322 329 335 340 342 345 349 353 357 358 359 360 362 364 365 367 369 371 368 367 366 365 365 364
285 292 294 296 295 295 297 298 299 300 301 300 300 300 300 302 304 306 306 306 306 306 308 309 309 308 308 308 309 308 308 308 309 309 311 312 312 312 316 319 323 331 337 340 342 346 349 352 353 355 357 359 362 363 367 369 369 369 370 366 364 365 366
295 297 296 297 296 293 297 300 300 300 302 301 299 300 301 302 304 306 306 307 306 306 307 309 310 310 310 310 309 308 308 309 309 310 312 314 314 314 316 318 323 329 334 338 340 344 347 349 350 351 352 355 357 359 362 364 368 369 368 365 363 362 362
293 298 298 298 298 298 300 300 300 301 302 301 300 300 301 302 304 306 306 307 308 308 307 307 309 311 311 310 311 310 309 309 310 311 313 316 314 314 314 317 321 327 331 338 340 343 344 346 347 347 347 349 353 355 359 360 362 364 368 365 362 362 366
Wind_Speed
11 15 16 17 16 13 12 14 17 16 12 14 11 11 10 10 9 12 7 12 13 6 7 9 8 9 13 17 21 21 20 17 15 14 14 16 16 16 17 18 18 21 20 20 20 21 20 21 21 22 22 22 22 20 20 21 21 20 20 20 19 17 17
9 7 8 15 17 15 9 15 13 13 14 13 12 11 9 12 13 9 11 14 11 11 10 13 19 17 16 16 16 18 21 22 20 16 14 15 16 16 18 19 19 21 21 23 22 21 23 23 25 24 23 22 20 20 20 21 21 22 21 20 19 18 18
7 6 10 15 16 17 17 11 12 15 15 16 13 9 14 13 15 10 12 13 14 12 10 4 12 20 18 17 16 17 18 20 22 21 19 17 16 16 16 18 17 18 19 21 21 22 24 24 23 23 23 22 20 20 20 22 23 23 22 19 18 16 17
8 7 10 16 16 19 21 18 15 15 12 14 13 13 9 9 12 9 11 13 11 11 11 10 4 10 15 15 16 18 18 18 17 18 20 20 18 16 15 16 17 18 21 23 24 24 24 24 23 22 24 22 23 22 21 21 21 20 20 20 19 19 19
5 11 12 15 15 16 17 18 15 12 14 10 13 12 14 12 11 10 8 9 10 10 9 12 11 8 9 12 13 13 14 16 17 18 17 17 19 18 17 16 17 19 20 22 23 23 22 22 21 21 22 23 22 21 22 22 22 23 23 22 21 18 17
11 12 13 18 20 19 17 18 19 17 14 16 17 16 16 16 12 8 8 9 2 4 5 8 8 8 9 10 12 12 14 15 15 15 17 17 16 18 18 19 18 18 20 21 22 21 19 20 21 22 22 22 22 22 21 22 21 21 22 21 20 19 18
12 13 13 6 11 9 9 10 17 22 17 15 15 16 15 13 15 13 11 8 8 3 5 5 6 7 10 11 12 13 12 13 15 14 16 17 17 17 18 19 19 19 19 20 20 21 22 23 22 24 22 22 23 24 23 21 22 23 22 22 20 18 18
14 22 24 19 15 13 12 12 10 15 22 19 17 15 14 16 14 13 11 12 7 4 3 4 2 3 4 5 7 7 9 12 14 15 16 17 16 16 17 17 17 16 17 17 16 19 20 20 20 22 21 22 22 21 22 21 24 24 23 21 20 20 19
11 12 15 16 14 9 13 16 14 13 15 18 9 6 6 7 15 18 12 13 8 9 7 5 8 10 10 9 8 8 9 8 7 12 17 15 16 16 17 16 15 16 16 17 16 18 19 19 20 20 21 21 21 21 22 22 22 23 21 20 20 20 20
12 13 15 15 16 14 11 15 20 19 11 15 13 14 10 10 12 16 14 13 7 2 6 6 7 9 10 9 7 7 7 6 9 3 4 1 8 8 10 12 13 15 15 16 17 18 18 20 20 20 20 21 21 21 23 22 20 21 21 20 21 20 20
13 5 10 9 8 9 8 16 14 11 13 12 11 9 15 15 12 13 13 11 9 12 10 8 8 9 7 1 5 7 7 7 6 5 1 3 4 6 8 9 9 9 11 15 17 18 20 21 21 20 21 21 20 20 21 21 20 20 20 20 20 20 20
20 21 16 15 15 14 14 12 10 9 9 10 14 16 16 12 9 15 14 13 13 11 6 1 1 4 7 5 6 6 5 5 5 4 1 2 4 5 7 10 12 14 14 15 17 18 19 19 20 19 20 20 20 20 21 21 20 20 18 20 20 20 19
20 23 22 16 14 14 15 15 14 13 8 8 14 18 21 20 16 13 12 11 16 15 11 6 7 10 8 7 7 6 6 7 7 6 5 3 3 5 8 10 12 14 16 15 17 19 19 20 20 20 19 19 18 17 18 19 19 21 20 20 20 20 19
17 20 22 18 18 17 16 15 15 14 13 13 13 13 14 21 15 12 13 4 9 7 4 8 8 10 9 7 6 6 9 10 10 9 8 7 7 5 3 8 13 14 16 17 18 19 19 20 21 21 18 18 19 20 20 21 20 20 19 19 19 20 20
14 17 20 20 19 18 17 17 17 17 14 14 14 14 15 16 20 19 18 15 13 6 8 10 10 9 8 9 10 11 10 12 13 13 12 11 11 10 9 8 6 12 16 17 18 19 20 21 22 20 19 19 20 21 20 21 21 20 21 20 20 20 19
13 12 17 20 18 18 19 18 18 17 16 15 14 15 11 15 16 17 15 16 18 3 13 10 9 6 8 10 11 11 11 14 14 14 14 14 13 12 12 10 10 10 12 16 18 20 22 23 23 21 19 19 20 20 20 21 21 20 20 20 21 19 18
11 13 15 16 16 16 18 19 15 16 15 13 6 5 2 3 4 9 15 14 3 10 9 9 8 8 7 8 10 11 12 13 13 14 15 16 15 15 14 13 12 11 13 14 18 21 22 21 21 23 22 21 20 21 20 20 19 20 21 21 19 18 18
9 11 11 11 11 16 15 7 11 17 18 11 11 9 8 4 3 3 3 4 8 9 10 9 9 8 8 7 6 8 9 11 13 14 15 15 16 17 16 15 14 14 13 13 15 20 20 21 24 24 22 22 21 20 19 18 20 19 19 19 18 18 18
9 10 12 10 14 14 3 2 7 15 17 14 9 9 3 2 1 3 4 4 7 9 10 10 10 10 10 9 3 7 11 11 11 14 15 16 16 17 17 16 16 15 16 15 16 17 20 21 19 18 18 18 16 17 18 20 19 18 18 17 17 18 18
7 9 9 6 9 2 2 7 13 13 9 14 15 9 5 4 2 2 1 4 6 9 12 11 9 10 10 5 6 11 13 14 13 15 15 17 17 18 17 18 17 17 17 16 16 17 17 17 18 20 20 20 19 20 20 19 19 18 18 17 17 17 18
8 8 9 12 6 3 7 3 7 9 0 3 2 3 3 4 3 4 3 5 8 12 12 12 11 11 9 9 6 16 16 18 17 17 18 18 19 19 19 18 18 17 16 16 16 14 15 16 18 19 19 20 19 19 19 18 19 19 18 18 18 18 18
10 9 8 8 11 11 6 2 8 9 10 11 11 6 5 3 5 5 4 6 8 11 13 13 15 12 8 11 7 15 19 20 20 21 21 20 19 19 19 17 16 15 13 13 13 13 16 18 19 17 18 18 18 18 18 18 19 19 19 19 18 18 18
5 9 9 7 8 4 6 7 10 11 13 13 13 6 6 3 4 5 6 7 8 10 12 14 13 5 12 6 7 14 21 21 21 21 22 22 21 19 18 16 15 14 12 10 12 14 16 19 18 18 19 20 19 18 18 18 19 19 19 19 19 19 18
10 9 7 9 5 2 8 11 12 13 14 9 7 8 6 5 3 5 7 8 9 10 10 10 9 10 4 8 10 16 18 19 19 18 20 21 21 19 17 16 13 13 12 9 12 14 16 17 18 19 20 19 19 18 18 18 19 19 19 19 19 17 16
11 11 9 8 10 1 10 12 14 10 11 7 5 4 5 3 4 6 7 8 8 8 9 9 6 7 7 9 12 16 18 19 21 20 19 18 19 17 16 16 13 11 7 8 11 14 15 16 17 18 18 18 18 17 18 18 20 19 18 16 16 15 15
11 9 10 10 7 6 11 13 10 5 4 5 1 4 4 4 5 5 6 7 8 8 8 8 7 8 11 12 13 15 17 17 18 19 19 19 18 17 15 17 10 8 6 8 11 13 13 16 18 18 18 17 17 18 18 20 20 16 15 15 15 15 15
7 8 8 5 8 4 16 15 5 11 3 6 5 7 2 3 5 6 6 6 8 9 8 9 9 11 12 13 14 15 16 17 18 19 20 18 17 16 15 14 12 7 4 4 8 12 14 16 16 16 18 18 17 17 19 18 15 14 15 15 15 15 15
4 7 8 3 5 11 12 9 4 4 3 4 7 8 6 5 5 7 6 6 7 8 9 11 11 11 12 14 15 16 16 17 17 17 17 17 17 18 17 14 14 12 2 4 5 11 11 13 13 14 16 15 15 17 17 13 13 14 14 14 14 14 14
2 1 4 6 8 8 9 6 4 1 5 7 10 10 9 7 6 7 7 9 9 8 9 10 10 11 11 14 16 15 17 18 19 19 20 17 16 16 16 15 16 12 1 4 1 1 9 13 11 12 13 14 14 14 12 12 13 13 14 14 14 14 14
5 3 3 7 9 10 8 7 7 8 9 9 11 12 10 8 8 8 8 9 9 9 9 10 10 10 12 15 16 16 16 17 17 18 18 18 19 19 18 18 17 15 3 3 5 4 3 5 8 9 10 11 12 11 11 11 12 12 13 13 13 13 13
6 1 5 11 15 12 6 5 9 8 7 8 9 11 11 11 11 10 9 9 9 10 9 9 11 13 13 14 15 15 15 16 17 19 19 18 18 17 17 16 14 14 10 4 3 4 5 5 5 5 6 8 9 10 10 11 11 11 12 12 12 12 12
4 5 7 14 16 9 3 4 10 12 11 11 9 10 11 12 12 11 9 9 9 8 9 9 11 13 12 13 14 14 14 15 15 17 18 20 21 20 17 15 14 12 13 9 7 5 5 5 5 5 6 6 8 8 9 10 10 9 10 10 11 11 12
6 5 7 16 14 3 5 11 11 11 13 13 12 13 13 13 12 11 9 8 9 9 10 10 10 13 13 12 14 15 14 14 14 15 17 18 17 16 18 18 15 12 12 13 11 10 8 6 5 6 7 7 6 6 6 7 8 9 9 10 9 10 11
8 9 11 15 10 8 13 14 14 13 14 14 14 13 13 13 13 12 12 11 9 9 9 9 10 11 11 13 13 15 14 14 15 16 17 17 17 17 16 14 15 14 15 14 13 11 10 9 9 9 8 7 5 4 4 5 7 8 9 9 9 9 10
9 12 13 11 10 10 10 13 13 13 13 13 14 14 15 14 13 13 13 13 12 10 9 9 10 10 10 12 14 15 13 14 14 15 16 17 16 16 17 17 17 16 16 16 15 15 13 11 11 11 10 9 7 6 4 3 7 8 9 8 8 8 8
9 11 12 12 11 11 12 13 13 13 11 13 15 14 14 14 14 13 13 12 12 12 11 10 9 11 11 10 12 14 15 15 15 16 16 15 14 15 13 13 14 16 16 16 15 14 12 12 12 12 12 12 10 8 6 4 2 6 8 7 7 8 8
10 12 11 12 13 12 9 10 11 11 11 13 14 14 14 14 14 13 13 12 10 10 10 11 11 10 11 11 10 11 13 15 15 16 17 14 14 14 14 15 16 14 12 11 12 12 12 12 12 12 12 12 12 10 7 6 3 3 3 5 7 7 5
Wind_Direction
221 213 210 209 218 221 189 200 210 218 217 232 241 256 261 273 262 239 204 210 231 262 239 205 204 215 218 215 219 222 223 216 215 216 209 203 202 200 195 194 195 195 192 190 190 189 188 187 187 190 189 189 189 187 185 184 183 181 183 185 186 188 188
212 281 256 225 211 240 224 207 210 209 229 240 238 239 225 235 241 227 213 227 221 210 247 212 213 215 213 215 214 215 215 215 214 213 212 207 204 202 196 195 196 193 192 191 191 191 189 187 189 190 188 188 188 188 186 182 182 183 184 184 186 186 187
229 208 226 230 233 225 246 240 182 208 190 213 214 241 230 225 227 236 227 228 239 222 218 145 202 211 214 217 218 218 213 212 215 213 211 206 205 204 197 198 197 195 194 193 192 192 192 191 189 187 186 186 187 188 188 187 187 186 183 184 185 186 188
208 240 215 223 211 217 234 252 255 210 232 213 213 214 253 246 250 232 228 216 233 219 236 237 215 199 210 216 221 221 219 214 211 212 213 206 203 203 202 201 199 197 196 195 194 194 193 191 188 187 186 187 189 189 188 191 190 186 184 185 185 188 190
237 230 213 225 214 203 204 224 234 235 220 226 230 216 222 231 241 238 245 218 223 222 214 225 216 209 203 215 222 221 223 222 212 211 210 207 207 204 206 206 203 201 198 198 196 195 194 191 188 187 186 189 190 188 190 190 187 188 188 188 186 188 187
232 241 224 224 225 221 217 211 223 217 210 207 211 222 212 225 237 240 238 239 239 111 184 202 211 212 220 219 229 227 220 223 224 210 206 207 205 204 204 208 208 205 200 198 196 193 191 188 187 189 190 190 188 190 191 190 190 192 191 189 189 186 188
249 250 236 277 304 301 292 277 222 215 231 224 220 225 216 222 230 241 247 262 232 117 127 167 191 214 216 217 218 230 230 222 217 215 210 206 205 202 203 206 210 207 199 196 193 188 188 188 188 189 189 189 190 191 190 189 190 192 192 191 188 185 187
272 273 276 275 276 293 287 251 260 219 212 220 225 227 232 231 217 220 222 232 237 203 157 244 247 221 259 274 269 253 235 218 216 214 211 203 197 198 205 210 211 202 196 193 189 186 187 190 188 188 189 191 192 190 191 191 194 192 191 190 188 186 187
235 236 249 245 231 259 242 226 216 237 233 226 238 305 339 269 237 225 216 230 215 227 232 201 242 263 257 244 229 238 251 264 256 213 202 201 195 198 205 210 207 200 195 186 187 185 185 188 189 188 190 191 190 191 192 193 194 192 190 190 189 188 188
225 216 209 215 214 220 231 241 231 220 242 231 230 232 226 239 226 246 234 223 218 97 136 208 217 244 250 245 258 261 257 263 242 25 37 120 190 202 216 215 205 201 191 185 185 182 183 187 188 187 188 190 191 191 193 193 190 189 189 189 189 188 189
257 277 350 321 332 317 263 216 227 237 232 240 248 256 233 224 219 232 236 259 231 210 196 195 226 240 255 317 63 36 32 47 48 71 76 184 196 208 216 219 215 202 191 188 186 185 186 188 188 187 189 190 191 190 191 191 189 188 188 188 188 188 189
264 278 286 303 307 288 285 292 273 258 230 233 234 226 228 231 250 239 223 229 256 231 232 325 115 50 47 29 16 13 7 22 16 27 107 213 204 211 205 204 199 194 195 191 187 188 189 191 191 190 190 190 189 188 188 188 187 187 186 187 187 188 188
264 273 274 273 283 281 282 281 279 276 259 248 235 232 233 231 229 234 219 235 241 237 246 22 8 1 10 25 20 9 4 8 12 356 350 323 230 194 199 202 198 198 194 189 188 186 189 190 192 192 191 191 190 189 189 188 188 188 185 186 187 187 187
267 269 274 273 266 269 266 260 262 266 266 255 241 236 228 226 229 243 257 262 272 259 9 356 357 339 353 9 8 11 12 7 358 349 347 350 356 339 296 203 203 203 201 194 191 189 189 191 191 192 191 191 190 189 187 187 188 187 183 186 186 187 188
274 265 267 269 261 257 260 257 256 257 260 257 240 234 226 226 233 230 238 257 266 89 13 355 331 342 338 351 8 9 7 359 354 348 347 347 347 344 334 331 262 217 210 205 197 192 191 194 195 193 191 191 191 190 187 187 187 185 183 184 186 187 188
270 265 267 264 260 253 252 255 254 255 249 239 231 224 232 227 222 220 221 230 241 332 2 343 319 318 340 347 359 1 1 358 348 347 341 339 335 332 330 321 312 293 242 216 206 199 196 195 195 194 192 190 189 191 188 188 187 185 184 184 185 186 185
275 276 270 267 257 255 249 240 239 241 239 239 82 88 130 234 325 221 214 220 9 345 345 336 334 331 325 338 358 355 357 353 348 343 338 331 328 325 323 316 307 289 272 243 214 208 202 198 195 194 190 189 189 190 188 187 184 185 185 184 183 183 181
274 286 282 270 244 236 235 238 230 216 228 185 153 183 181 161 237 258 357 359 347 342 347 330 327 325 328 337 11 28 17 353 348 341 334 328 324 321 317 313 304 296 282 264 238 214 206 199 197 194 191 189 189 188 184 181 184 186 184 183 181 180 179
259 273 284 263 240 237 229 262 258 212 215 179 166 134 152 158 11 320 265 333 337 342 324 314 305 307 292 289 1 43 28 11 350 337 329 327 322 314 310 307 307 303 294 270 247 228 213 205 198 191 191 190 182 183 180 182 184 183 182 182 180 180 179
262 264 256 249 238 316 337 67 24 352 109 116 123 110 90 70 40 318 258 344 335 330 327 318 313 292 287 249 87 34 17 8 354 339 329 323 317 309 305 304 300 294 282 270 247 230 217 205 195 193 189 186 183 184 182 181 182 182 180 182 180 180 180
238 238 240 248 293 285 227 62 25 350 100 202 247 197 122 47 19 17 4 1 354 342 333 325 314 307 273 235 173 27 11 356 346 339 326 316 311 303 297 296 295 291 280 262 249 228 215 205 197 194 187 184 184 183 182 180 180 181 180 181 181 180 183
226 244 257 265 253 247 186 100 8 345 341 311 295 278 151 50 27 18 18 18 4 348 337 337 330 299 236 231 199 12 353 345 342 332 323 317 312 303 299 297 294 292 272 251 234 219 202 201 195 189 184 182 179 180 182 179 180 180 181 183 182 181 185
217 227 244 253 263 246 49 5 344 338 336 323 307 275 197 90 23 29 27 31 20 1 348 346 342 291 222 216 18 357 339 334 332 327 321 315 310 303 302 302 305 306 293 245 229 208 202 196 189 181 180 178 176 178 179 178 179 181 184 184 183 184 186
232 243 238 245 253 318 27 358 343 331 323 323 300 224 193 101 53 36 38 39 22 4 357 354 20 24 13 353 339 333 324 324 319 317 312 309 310 310 312 308 317 304 289 230 221 196 195 191 182 179 176 174 176 175 177 178 180 184 186 187 188 186 182
233 236 256 270 271 97 27 353 339 337 324 299 238 219 74 88 68 36 44 38 25 9 8 11 14 11 351 328 317 315 321 323 320 317 315 314 313 319 319 318 321 300 271 220 206 202 191 186 180 175 172 176 175 173 175 180 186 189 188 185 184 181 181
230 234 244 253 292 36 354 352 346 19 321 213 218 51 304 24 37 40 31 28 21 8 14 4 356 332 328 324 321 320 323 322 313 312 313 317 322 330 325 319 307 308 271 223 220 206 183 179 178 180 179 176 173 173 178 185 189 187 180 180 180 179 180
248 240 255 250 252 76 0 343 0 28 12 24 334 313 24 18 10 15 17 22 14 358 348 346 332 325 325 325 325 321 320 323 321 321 322 319 325 332 334 333 337 313 314 255 220 206 185 188 188 182 179 175 174 175 184 187 180 177 177 177 176 177 178
246 223 225 255 357 317 339 3 17 31 36 340 330 339 336 354 349 359 345 5 2 358 346 337 330 325 321 321 324 322 323 323 321 320 323 330 335 339 337 339 344 328 286 325 276 196 178 183 180 178 178 175 176 181 184 172 174 173 173 174 174 175 175
279 306 4 339 321 341 342 332 341 22 346 354 334 319 319 318 341 337 335 334 338 343 341 329 326 322 325 319 318 323 325 326 329 332 331 326 323 331 338 343 345 343 328 235 344 111 177 179 177 179 179 178 179 178 169 166 172 171 171 171 172 174 174
321 244 296 352 343 342 344 62 25 16 359 350 338 329 323 317 320 324 323 326 322 327 334 330 325 321 319 319 319 322 324 326 326 328 330 335 341 339 344 349 345 342 353 201 185 148 88 160 172 185 184 181 178 171 164 168 169 167 169 170 172 173 173
311 215 9 351 341 332 317 29 359 4 1 341 331 321 319 311 309 312 313 316 314 310 317 322 320 314 321 318 319 321 324 327 329 332 335 338 336 335 337 327 338 354 358 75 89 140 127 152 162 165 180 178 169 159 157 162 166 166 171 169 171 173 174
333 335 353 346 335 316 238 37 353 338 342 333 324 316 314 309 304 301 307 310 308 314 314 323 320 314 316 321 322 322 325 328 332 332 335 339 338 333 333 331 345 4 15 36 73 98 111 103 112 119 123 132 151 150 153 160 164 163 170 173 174 176 175
331 334 351 347 337 67 41 351 345 339 333 331 324 323 317 309 304 306 311 312 312 312 312 315 316 313 319 322 324 323 323 328 332 332 334 334 329 326 339 338 343 349 20 34 35 64 76 92 115 107 93 92 107 116 137 162 170 175 177 176 181 181 181
354 357 344 347 345 328 325 334 335 331 330 327 322 317 317 314 315 318 315 313 312 306 308 312 314 317 315 321 324 323 323 327 330 330 330 329 332 334 338 337 343 352 5 15 27 39 52 66 81 83 81 81 86 117 146 166 174 180 178 177 184 187 192
324 333 339 338 324 308 312 320 325 328 328 325 324 322 315 314 312 311 311 311 312 308 309 315 312 315 318 320 322 319 325 326 330 327 327 328 333 337 340 342 347 353 3 19 25 34 44 55 73 78 77 78 90 93 67 151 180 178 184 179 177 187 190
318 335 337 333 325 320 319 329 334 327 325 325 322 317 313 310 313 313 311 308 308 309 309 309 307 307 312 317 321 320 320 324 326 326 325 326 332 335 338 342 343 352 356 13 21 23 27 39 49 61 67 64 55 63 77 78 97 153 174 171 173 180 187
329 334 333 331 324 318 327 332 328 324 328 326 320 317 317 313 309 311 306 304 302 300 304 303 301 299 303 311 317 316 317 318 322 323 323 327 335 340 343 348 353 349 342 360 22 26 28 36 41 42 45 43 42 47 52 51 36 118 147 168 179 169 160